Location: Clinton NY
(43.0598°N, 75.3602°W)
Time: 08:05:53
(UTC-04:00)

Amateur Radio Satellites - All Passes

Search period start: 21 August 2014 07:35
Search period end: 22 August 2014 07:35
Location: Clinton NY, 43.0598°N, 75.3602°W

Satellite Date Start Highest point End Downlink Frequencies (MHz)
Time Altitude Azimuth
UOSAT-12 21 Aug 07:44:40 07:48:20 24° 112° (ESE) 07:52:04 437.025 FM, 437.400 FM
STRAND 1 21 Aug 07:49:05 07:53:35 31° 264° (W) 07:58:06 ?
KITSAT 1 21 Aug 07:57:13 08:02:07 17° 20° (NNE) 08:07:00 435.175 FM
RS-15 21 Aug 08:05:11 08:12:42 21° 100° (E) 08:20:06 29.354 - 29.394 USB, Beacon 29.352 USB
SO-50 21 Aug 08:06:21 08:10:06 25° 317° (NW) 08:13:56 436.795 FM
AO-7 21 Aug 08:07:59 08:12:55 18° 314° (NW) 08:17:49 29.400 - 29.500 MHz
Hamsat 21 Aug 08:15:30 08:18:33 19° 295° (WNW) 08:21:36 145.90 MHz
SO-67 21 Aug 08:32:25 08:35:50 54° 285° (WNW) 08:39:13 435.3500 MHz FM
JAS-2 21 Aug 08:43:35 08:47:12 19° 298° (WNW) 08:50:49 435.800 - 435.900 CW/SSB, 435.910 FM
UKube-1 21 Aug 09:15:32 09:16:47 11° 90° (E) 09:18:02 145.840 MHz, 145.915 MHz
UOSAT-12 21 Aug 09:23:48 09:28:14 44° 310° (NW) 09:32:46 437.025 FM, 437.400 FM
Oscar 11 21 Aug 09:33:01 09:34:06 11° 89° (E) 09:35:12 145.825 FM, Beacon 2401.500 USB
Saudisat 1A 21 Aug 09:41:12 09:45:23 39° 49° (NE) 09:49:31 436.775 MHz
HO-68 21 Aug 09:49:08 09:56:05 51° 101° (E) 10:02:59 435.675 MHz FM
KITSAT 1 21 Aug 09:52:17 09:59:58 44° 47° (NE) 10:07:35 435.175 FM
RS-15 21 Aug 10:12:17 10:23:23 86° 121° (ESE) 10:34:21 29.354 - 29.394 USB, Beacon 29.352 USB
UKube-1 21 Aug 10:49:08 10:53:28 69° 286° (WNW) 10:57:46 145.840 MHz, 145.915 MHz
FUNcube-1 21 Aug 11:03:05 11:07:16 41° 98° (E) 11:11:31 145.950 - 145.970 MHz USB
Oscar 11 21 Aug 11:06:25 11:10:47 72° 285° (WNW) 11:15:07 145.825 FM, Beacon 2401.500 USB
UOSAT-12 21 Aug 11:08:46 11:09:37 10° 332° (NNW) 11:10:28 437.025 FM, 437.400 FM
Saudisat 1A 21 Aug 11:21:11 11:24:46 25° 247° (WSW) 11:28:20 436.775 MHz
HO-68 21 Aug 11:37:17 11:43:31 34° 299° (WNW) 11:49:44 435.675 MHz FM
KITSAT 1 21 Aug 11:47:48 11:55:28 49° 248° (WSW) 12:03:05 435.175 FM
Oscar 19 21 Aug 12:02:37 12:03:56 11° 56° (NE) 12:05:15 437.125 CW, 437.150 USB
JAS-1B 21 Aug 12:19:46 12:25:41 18° 50° (NE) 12:31:19 435.800 - 435.900 CW/SSB
RS-15 21 Aug 12:27:21 12:37:08 35° 328° (NNW) 12:46:56 29.354 - 29.394 USB, Beacon 29.352 USB
Oscar 16 21 Aug 12:32:42 12:36:31 22° 63° (ENE) 12:40:21 437.025 USB, Beacon 2401.1428
AO-27 21 Aug 12:37:32 12:38:46 11° 56° (NE) 12:40:01 436.795 MHz FM
FUNcube-1 21 Aug 12:40:09 12:43:25 21° 294° (WNW) 12:46:42 145.950 - 145.970 MHz USB
SO-50 21 Aug 13:16:41 13:18:38 12° 31° (NNE) 13:20:35 436.795 FM
Oscar 19 21 Aug 13:37:15 13:42:22 76° 74° (ENE) 13:47:33 437.125 CW, 437.150 USB
AO-7 21 Aug 13:37:17 13:38:18 10° 37° (NE) 13:39:19 29.400 - 29.500 MHz
Gurwin Techsat 1B 21 Aug 13:43:25 13:47:07 20° 61° (ENE) 13:50:49 435.225 FM
ITAMSAT 1 21 Aug 13:46:21 13:51:13 43° 69° (ENE) 13:56:05 435.822 SSB
AO-Echo 21 Aug 13:47:57 13:52:53 47° 71° (ENE) 13:57:42 ?
Uribyol 2 21 Aug 13:58:48 14:03:52 59° 72° (ENE) 14:08:56 436.500 FM
JAS-1B 21 Aug 14:04:50 14:14:34 65° 69° (ENE) 14:23:47 435.800 - 435.900 CW/SSB
Oscar 16 21 Aug 14:10:30 14:15:29 52° 260° (W) 14:20:33 437.025 USB, Beacon 2401.1428
AO-27 21 Aug 14:12:13 14:17:23 75° 74° (ENE) 14:22:35 436.795 MHz FM
TMSAT-1 21 Aug 14:40:12 14:45:11 44° 69° (ENE) 14:50:11 436.925 FM
ISS 21 Aug 14:40:27 14:43:42 54° 142° (SE) 14:46:57 145.800 FM
RS-15 21 Aug 14:45:43 14:53:57 23° 3° (N) 15:02:18 29.354 - 29.394 USB, Beacon 29.352 USB
MaSat-1 21 Aug 14:54:30 14:57:55 20° 102° (ESE) 15:01:33 437.345 MHz
SO-50 21 Aug 14:55:31 15:00:13 56° 52° (NE) 15:04:58 436.795 FM
Oscar 19 21 Aug 15:19:51 15:22:18 13° 271° (W) 15:24:45 437.125 CW, 437.150 USB
AO-7 21 Aug 15:21:13 15:28:52 42° 60° (ENE) 15:36:30 29.400 - 29.500 MHz
Gurwin Techsat 1B 21 Aug 15:21:22 15:26:36 61° 259° (W) 15:31:53 435.225 FM
ITAMSAT 1 21 Aug 15:26:41 15:30:52 25° 266° (W) 15:35:04 435.822 SSB
AO-Echo 21 Aug 15:27:53 15:31:51 22° 267° (W) 15:35:45 ?
Uribyol 2 21 Aug 15:40:19 15:43:43 18° 269° (W) 15:47:09 436.500 FM
AO-27 21 Aug 15:54:52 15:57:27 14° 271° (W) 16:00:04 436.795 MHz FM
JAS-1B 21 Aug 15:56:33 16:05:21 36° 267° (W) 16:13:52 435.800 - 435.900 CW/SSB
Uosat F 21 Aug 16:07:44 16:12:39 59° 72° (ENE) 16:17:36 435.120 FM
UOSAT-12 21 Aug 16:12:35 16:16:48 31° 45° (NE) 16:20:57 437.025 FM, 437.400 FM
ISS 21 Aug 16:17:37 16:20:35 29° 340° (NNW) 16:23:34 145.800 FM
TMSAT-1 21 Aug 16:20:58 16:25:16 25° 266° (W) 16:29:35 436.925 FM
MaSat-1 21 Aug 16:29:52 16:34:33 54° 301° (WNW) 16:39:38 437.345 MHz
SO-50 21 Aug 16:36:59 16:40:25 20° 249° (WSW) 16:43:52 436.795 FM
OPAL 21 Aug 16:52:15 16:56:53 32° 98° (E) 17:01:31 ?
RS-15 21 Aug 17:00:15 17:10:27 40° 37° (NE) 17:20:54 29.354 - 29.394 USB, Beacon 29.352 USB
JAS-2 21 Aug 17:10:34 17:16:06 30° 66° (ENE) 17:21:07 435.800 - 435.900 CW/SSB, 435.910 FM
AO-7 21 Aug 17:13:32 17:21:31 48° 259° (W) 17:29:32 29.400 - 29.500 MHz
Hamsat 21 Aug 17:33:02 17:36:55 35° 70° (ENE) 17:40:51 145.90 MHz
Uosat F 21 Aug 17:48:36 17:51:49 17° 269° (W) 17:55:03 435.120 FM
UOSAT-12 21 Aug 17:52:38 17:57:01 38° 244° (WSW) 18:01:20 437.025 FM, 437.400 FM
ISS 21 Aug 17:55:39 17:58:04 18° 0° (N) 18:00:29 145.800 FM
MaSat-1 21 Aug 18:11:34 18:12:55 11° 322° (NW) 18:14:17 437.345 MHz
PCSat 21 Aug 18:17:48 18:21:15 17° 105° (ESE) 18:24:43 145.825 MHz
OPAL 21 Aug 18:31:04 18:35:45 35° 295° (WNW) 18:40:26 ?
JAS-2 21 Aug 18:54:29 19:01:00 48° 260° (W) 19:06:48 435.800 - 435.900 CW/SSB, 435.910 FM
SO-67 21 Aug 19:06:07 19:09:30 52° 75° (ENE) 19:12:53 435.3500 MHz FM
Hamsat 21 Aug 19:09:41 19:12:58 21° 267° (W) 19:16:17 145.90 MHz
RS-15 21 Aug 19:12:44 19:23:44 74° 242° (WSW) 19:35:11 29.354 - 29.394 USB, Beacon 29.352 USB
Sapphire 21 Aug 19:28:08 19:33:27 64° 116° (ESE) 19:38:50 437.095 MHz 1200 baud AX-25 AFSK
ISS 21 Aug 19:32:32 19:35:33 31° 21° (NNE) 19:38:33 145.800 FM
STRAND 1 21 Aug 19:57:53 20:03:00 82° 104° (ESE) 20:08:06 ?
PCSat 21 Aug 19:58:41 20:04:04 69° 302° (WNW) 20:09:30 145.825 MHz
UKube-1 21 Aug 20:12:11 20:14:03 13° 60° (ENE) 20:15:56 145.840 MHz, 145.915 MHz
HO-68 21 Aug 20:18:40 20:25:18 43° 64° (ENE) 20:31:56 435.675 MHz FM
Oscar 11 21 Aug 20:29:50 20:30:54 11° 60° (ENE) 20:31:58 145.825 FM, Beacon 2401.500 USB
ISS 21 Aug 21:09:10 21:12:24 49° 219° (SW) 21:15:38 145.800 FM
Sapphire 21 Aug 21:13:04 21:17:20 23° 316° (NW) 21:21:39 437.095 MHz 1200 baud AX-25 AFSK
RS-15 21 Aug 21:27:54 21:34:07 17° 262° (W) 21:40:29 29.354 - 29.394 USB, Beacon 29.352 USB
STRAND 1 21 Aug 21:38:57 21:41:31 14° 302° (WNW) 21:44:04 ?
UKube-1 21 Aug 21:45:21 21:49:41 71° 257° (WSW) 21:54:03 145.840 MHz, 145.915 MHz
PCSat 21 Aug 21:45:32 21:48:31 15° 324° (NW) 21:51:31 145.825 MHz
FUNcube-1 21 Aug 22:00:50 22:04:37 35° 70° (ENE) 22:08:26 145.950 - 145.970 MHz USB
Oscar 11 21 Aug 22:02:06 22:06:25 82° 257° (WSW) 22:10:48 145.825 FM, Beacon 2401.500 USB
HO-68 21 Aug 22:06:26 22:13:01 39° 262° (W) 22:19:38 435.675 MHz FM
FUNcube-1 21 Aug 23:38:07 23:41:09 20° 267° (W) 23:44:12 145.950 - 145.970 MHz USB
KITSAT 1 22 Aug 00:23:35 00:29:34 23° 104° (ESE) 00:35:33 435.175 FM
MaSat-1 22 Aug 00:46:57 00:51:46 49° 58° (ENE) 00:56:01 437.345 MHz
Saudisat 1A 22 Aug 01:27:32 01:31:54 68° 121° (ESE) 01:36:18 436.775 MHz
Oscar 19 22 Aug 01:48:30 01:52:47 25° 94° (E) 01:57:01 437.125 CW, 437.150 USB
JAS-1B 22 Aug 01:54:22 01:57:41 14° 81° (E) 02:00:46 435.800 - 435.900 CW/SSB
AO-Echo 22 Aug 01:56:21 01:58:16 12° 89° (E) 02:00:11 ?
ITAMSAT 1 22 Aug 01:59:51 02:02:25 14° 89° (E) 02:04:59 435.822 SSB
Uribyol 2 22 Aug 02:11:30 02:15:10 19° 92° (E) 02:18:50 436.500 FM
KITSAT 1 22 Aug 02:15:58 02:24:05 80° 303° (WNW) 02:32:14 435.175 FM
Oscar 16 22 Aug 02:21:05 02:26:10 52° 100° (E) 02:31:13 437.025 USB, Beacon 2401.1428
AO-27 22 Aug 02:24:57 02:29:09 25° 94° (E) 02:33:20 436.795 MHz FM
MaSat-1 22 Aug 02:25:04 02:28:22 19° 259° (WSW) 02:31:24 437.345 MHz
Sapphire 22 Aug 02:33:18 02:36:02 14° 35° (NE) 02:38:44 437.095 MHz 1200 baud AX-25 AFSK
TMSAT-1 22 Aug 02:56:16 02:59:25 16° 90° (E) 03:02:34 436.925 FM
PCSat 22 Aug 03:03:03 03:07:13 22° 43° (NE) 03:11:21 145.825 MHz
Saudisat 1A 22 Aug 03:08:47 03:11:56 19° 320° (NW) 03:15:05 436.775 MHz
Oscar 19 22 Aug 03:27:22 03:32:15 42° 291° (WNW) 03:37:07 437.125 CW, 437.150 USB
AO-Echo 22 Aug 03:32:51 03:37:35 70° 286° (WNW) 03:42:14 ?
Gurwin Techsat 1B 22 Aug 03:36:36 03:41:47 50° 100° (E) 03:46:55 435.225 FM
ITAMSAT 1 22 Aug 03:37:18 03:42:29 75° 286° (WNW) 03:47:38 435.822 SSB
JAS-1B 22 Aug 03:42:11 03:49:50 86° 105° (ESE) 03:56:11 435.800 - 435.900 CW/SSB
Uribyol 2 22 Aug 03:49:56 03:54:59 54° 289° (WNW) 04:00:01 436.500 FM
Oscar 16 22 Aug 04:01:15 04:05:09 22° 297° (WNW) 04:09:02 437.025 USB, Beacon 2401.1428
AO-27 22 Aug 04:03:57 04:08:49 43° 291° (WNW) 04:13:41 436.795 MHz FM
OPAL 22 Aug 04:08:01 04:12:57 62° 70° (ENE) 04:17:59 ?
KITSAT 1 22 Aug 04:14:25 04:20:49 25° 327° (NNW) 04:27:14 435.175 FM
Sapphire 22 Aug 04:15:10 04:20:35 63° 57° (ENE) 04:25:57 437.095 MHz 1200 baud AX-25 AFSK
Uosat F 22 Aug 04:15:45 04:18:53 17° 91° (E) 04:22:00 435.120 FM
TMSAT-1 22 Aug 04:34:34 04:39:50 68° 287° (WNW) 04:45:04 436.925 FM
PCSat 22 Aug 04:45:45 04:51:11 71° 243° (WSW) 04:56:33 145.825 MHz
AO-7 22 Aug 05:13:30 05:21:40 57° 103° (ESE) 05:29:45 29.400 - 29.500 MHz
SO-50 22 Aug 05:14:05 05:16:08 13° 108° (ESE) 05:18:13 436.795 FM
Gurwin Techsat 1B 22 Aug 05:17:19 05:21:24 23° 297° (WNW) 05:25:28 435.225 FM
ITAMSAT 1 22 Aug 05:19:53 05:21:04 11° 304° (NW) 05:22:15 435.822 SSB
JAS-1B 22 Aug 05:34:06 05:39:13 20° 309° (NW) 05:43:50 435.800 - 435.900 CW/SSB
STRAND 1 22 Aug 05:37:54 05:41:15 18° 61° (ENE) 05:44:36 ?
OPAL 22 Aug 05:49:11 05:52:16 16° 267° (W) 05:55:24 ?
Uosat F 22 Aug 05:53:08 05:58:04 60° 288° (WNW) 06:02:58 435.120 FM
Sapphire 22 Aug 05:59:43 06:03:29 19° 254° (WSW) 06:07:15 437.095 MHz 1200 baud AX-25 AFSK
JAS-2 22 Aug 06:03:35 06:07:01 18° 92° (E) 06:10:29 435.800 - 435.900 CW/SSB, 435.910 FM
KITSAT 1 22 Aug 06:16:11 06:19:47 13° 356° (N) 06:23:23 435.175 FM
SO-50 22 Aug 06:51:36 06:56:03 73° 306° (NW) 07:00:39 436.795 FM
Hamsat 22 Aug 06:53:13 06:57:35 64° 101° (E) 07:01:53 145.90 MHz
AO-7 22 Aug 07:06:48 07:14:06 36° 302° (WNW) 07:21:22 29.400 - 29.500 MHz
STRAND 1 22 Aug 07:14:53 07:19:56 63° 258° (WSW) 07:25:01 ?
